Time,TemperatureF,DewpointF,PressureIn,WindDirection,WindDirectionDegrees,WindSpeedMPH,WindSpeedGustMPH,Humidity,HourlyPrecipIn,Conditions,Clouds,dailyrainin,SoftwareType,DateUTC
2013-11-12 00:00:00,52.8,48.4,30.16,North,360,0.0,4.0,85,0.00,,,0.00,Wunderground v.1.15,2013-11-12 08:00:00,
2013-11-12 00:05:00,53.0,48.3,30.16,North,360,0.0,4.0,84,0.00,,,0.00,Wunderground v.1.15,2013-11-12 08:05:00,
2013-11-12 00:15:00,53.3,48.3,30.15,North,360,0.0,0.0,83,0.00,,,0.00,Wunderground v.1.15,2013-11-12 08:15:00,
2013-11-12 00:20:00,53.4,48.4,30.15,North,360,0.0,0.0,83,0.00,,,0.00,Wunderground v.1.15,2013-11-12 08:20:00,
2013-11-12 00:25:00,53.9,48.5,30.16,North,360,0.0,0.0,82,0.00,,,0.00,Wunderground v.1.15,2013-11-12 08:25:00,
2013-11-12 00:30:00,54.3,48.6,30.17,North,360,0.0,0.0,81,0.00,,,0.00,Wunderground v.1.15,2013-11-12 08:30:00,
2013-11-12 00:35:00,54.2,48.5,30.17,North,360,0.0,0.0,81,0.00,,,0.00,Wunderground v.1.15,2013-11-12 08:35:00,
2013-11-12 00:45:00,54.1,48.4,30.18,SW,229,2.0,4.0,81,0.00,,,0.00,Wunderground v.1.15,2013-11-12 08:45:00,
2013-11-12 00:50:00,53.1,48.1,30.20,SW,214,4.0,6.0,83,0.00,,,0.00,Wunderground v.1.15,2013-11-12 08:50:00,
2013-11-12 00:55:00,52.7,48.3,30.20,SSW,213,5.0,7.0,85,0.00,,,0.00,Wunderground v.1.15,2013-11-12 08:55:00,
2013-11-12 01:00:00,52.6,48.2,30.20,SSW,210,6.0,6.0,85,0.00,,,0.00,Wunderground v.1.15,2013-11-12 09:00:00,
2013-11-12 01:05:00,52.8,48.4,30.20,SSW,209,6.0,6.0,85,0.00,,,0.00,Wunderground v.1.15,2013-11-12 09:05:00,
2013-11-12 01:10:00,52.9,48.2,30.19,SSW,211,5.0,5.0,84,0.00,,,0.00,Wunderground v.1.15,2013-11-12 09:10:00,
2013-11-12 01:20:00,53.5,48.5,30.19,SSW,211,3.0,4.0,83,0.00,,,0.00,Wunderground v.1.15,2013-11-12 09:20:00,
2013-11-12 01:25:00,53.6,48.2,30.19,SSW,211,3.0,4.0,82,0.00,,,0.00,Wunderground v.1.15,2013-11-12 09:25:00,
2013-11-12 01:30:00,53.9,48.5,30.19,SSW,210,2.0,4.0,82,0.00,,,0.00,Wunderground v.1.15,2013-11-12 09:30:00,
2013-11-12 01:35:00,53.9,48.2,30.20,SSW,210,2.0,4.0,81,0.00,,,0.00,Wunderground v.1.15,2013-11-12 09:35:00,
2013-11-12 01:40:00,53.8,48.4,30.19,SSW,210,1.0,1.0,82,0.00,,,0.00,Wunderground v.1.15,2013-11-12 09:40:00,
2013-11-12 01:50:00,53.9,48.2,30.19,SSW,210,0.0,4.0,81,0.00,,,0.00,Wunderground v.1.15,2013-11-12 09:50:00,
2013-11-12 01:55:00,53.9,47.9,30.19,SSW,210,0.0,4.0,80,0.00,,,0.00,Wunderground v.1.15,2013-11-12 09:55:00,
2013-11-12 02:00:00,53.7,48.0,30.19,SSW,210,0.0,4.0,81,0.00,,,0.00,Wunderground v.1.15,2013-11-12 10:00:00,
2013-11-12 02:05:00,53.3,47.9,30.19,SSW,210,0.0,4.0,82,0.00,,,0.00,Wunderground v.1.15,2013-11-12 10:05:00,
2013-11-12 02:15:00,53.0,47.7,30.19,SSW,211,0.0,4.0,82,0.00,,,0.00,Wunderground v.1.15,2013-11-12 10:15:00,
2013-11-12 02:20:00,52.9,47.9,30.19,SSW,210,0.0,4.0,83,0.00,,,0.00,Wunderground v.1.15,2013-11-12 10:20:00,
2013-11-12 02:25:00,52.7,47.7,30.20,SSW,210,0.0,4.0,83,0.00,,,0.00,Wunderground v.1.15,2013-11-12 10:25:00,
2013-11-12 02:30:00,52.8,48.1,30.20,SSW,210,0.0,4.0,84,0.00,,,0.00,Wunderground v.1.15,2013-11-12 10:30:00,
2013-11-12 02:35:00,52.9,48.2,30.21,SSW,210,0.0,4.0,84,0.00,,,0.00,Wunderground v.1.15,2013-11-12 10:35:00,
2013-11-12 02:45:00,53.5,48.1,30.20,SSW,210,0.0,4.0,82,0.00,,,0.00,Wunderground v.1.15,2013-11-12 10:45:00,
2013-11-12 02:50:00,53.8,48.4,30.20,SSW,210,0.0,4.0,82,0.00,,,0.00,Wunderground v.1.15,2013-11-12 10:50:00,
2013-11-12 02:55:00,53.5,47.8,30.18,SW,219,1.0,4.0,81,0.00,,,0.00,Wunderground v.1.15,2013-11-12 10:55:00,
2013-11-12 03:00:00,52.9,47.9,30.18,SW,219,1.0,1.0,83,0.00,,,0.00,Wunderground v.1.15,2013-11-12 11:00:00,
2013-11-12 03:05:00,53.0,47.7,30.20,SW,219,1.0,3.0,82,0.00,,,0.00,Wunderground v.1.15,2013-11-12 11:05:00,
2013-11-12 03:10:00,52.6,47.6,30.20,SW,218,1.0,1.0,83,0.00,,,0.00,Wunderground v.1.15,2013-11-12 11:10:00,
2013-11-12 03:15:00,52.3,47.6,30.20,SW,217,1.0,4.0,84,0.00,,,0.00,Wunderground v.1.15,2013-11-12 11:15:00,
2013-11-12 03:25:00,52.2,47.5,30.19,SW,217,0.0,4.0,84,0.00,,,0.00,Wunderground v.1.15,2013-11-12 11:25:00,
2013-11-12 03:30:00,52.3,47.6,30.19,SW,218,0.0,4.0,84,0.00,,,0.00,Wunderground v.1.15,2013-11-12 11:30:00,
2013-11-12 03:35:00,52.5,47.5,30.20,SW,217,0.0,4.0,83,0.00,,,0.00,Wunderground v.1.15,2013-11-12 11:35:00,
2013-11-12 03:40:00,52.3,47.6,30.20,SW,217,0.0,4.0,84,0.00,,,0.00,Wunderground v.1.15,2013-11-12 11:40:00,
2013-11-12 03:45:00,52.2,47.5,30.20,SW,217,0.0,4.0,84,0.00,,,0.00,Wunderground v.1.15,2013-11-12 11:45:00,
2013-11-12 03:50:00,52.2,47.5,30.19,SW,217,0.0,4.0,84,0.00,,,0.00,Wunderground v.1.15,2013-11-12 11:50:00,
2013-11-12 04:00:00,52.6,47.9,30.21,SW,217,0.0,4.0,84,0.00,,,0.00,Wunderground v.1.15,2013-11-12 12:00:00,
2013-11-12 04:05:00,52.8,47.8,30.21,SW,217,0.0,4.0,83,0.00,,,0.00,Wunderground v.1.15,2013-11-12 12:05:00,
2013-11-12 04:10:00,53.0,47.7,30.20,SW,217,0.0,4.0,82,0.00,,,0.00,Wunderground v.1.15,2013-11-12 12:10:00,
2013-11-12 04:15:00,53.1,47.7,30.20,SW,217,0.0,4.0,82,0.00,,,0.00,Wunderground v.1.15,2013-11-12 12:15:00,
2013-11-12 04:20:00,53.0,47.7,30.20,SW,217,0.0,4.0,82,0.00,,,0.00,Wunderground v.1.15,2013-11-12 12:20:00,
2013-11-12 04:25:00,52.9,47.6,30.20,SW,217,0.0,4.0,82,0.00,,,0.00,Wunderground v.1.15,2013-11-12 12:25:00,
2013-11-12 04:35:00,53.2,47.8,30.20,SW,217,1.0,4.0,82,0.00,,,0.00,Wunderground v.1.15,2013-11-12 12:35:00,
2013-11-12 04:40:00,53.5,47.8,30.20,SW,217,2.0,4.0,81,0.00,,,0.00,Wunderground v.1.15,2013-11-12 12:40:00,
2013-11-12 04:45:00,53.7,48.0,30.22,SW,217,2.0,4.0,81,0.00,,,0.00,Wunderground v.1.15,2013-11-12 12:45:00,
2013-11-12 04:50:00,53.3,47.6,30.20,SW,217,2.0,2.0,81,0.00,,,0.00,Wunderground v.1.15,2013-11-12 12:50:00,
2013-11-12 04:55:00,53.0,47.7,30.19,SW,219,2.0,4.0,82,0.00,,,0.00,Wunderground v.1.15,2013-11-12 12:55:00,
2013-11-12 05:05:00,52.9,47.6,30.22,SSW,205,2.0,4.0,82,0.00,,,0.00,Wunderground v.1.15,2013-11-12 13:05:00,
2013-11-12 05:10:00,52.4,47.1,30.22,SSW,205,2.0,2.0,82,0.00,,,0.00,Wunderground v.1.15,2013-11-12 13:10:00,
2013-11-12 05:15:00,51.9,47.2,30.22,SSW,205,1.0,4.0,84,0.00,,,0.00,Wunderground v.1.15,2013-11-12 13:15:00,
2013-11-12 05:20:00,51.9,47.5,30.22,SSW,212,1.0,4.0,85,0.00,,,0.00,Wunderground v.1.15,2013-11-12 13:20:00,
2013-11-12 05:25:00,52.7,48.0,30.22,SSW,212,3.0,5.0,84,0.00,,,0.00,Wunderground v.1.15,2013-11-12 13:25:00,
2013-11-12 05:35:00,53.2,47.8,30.22,SSW,212,2.0,4.0,82,0.00,,,0.00,Wunderground v.1.15,2013-11-12 13:35:00,
2013-11-12 05:40:00,52.8,47.8,30.22,SSW,212,0.0,4.0,83,0.00,,,0.00,Wunderground v.1.15,2013-11-12 13:40:00,
2013-11-12 05:45:00,52.5,47.5,30.22,SSW,212,0.0,4.0,83,0.00,,,0.00,Wunderground v.1.15,2013-11-12 13:45:00,
2013-11-12 05:50:00,52.1,47.1,30.21,SSW,212,1.0,4.0,83,0.00,,,0.00,Wunderground v.1.15,2013-11-12 13:50:00,
2013-11-12 05:55:00,52.0,47.6,30.18,SW,218,2.0,4.0,85,0.00,,,0.00,Wunderground v.1.15,2013-11-12 13:55:00,
2013-11-12 06:00:00,52.4,47.7,30.19,SSE,165,2.0,7.0,84,0.00,,,0.00,Wunderground v.1.15,2013-11-12 14:00:00,
2013-11-12 06:10:00,53.5,48.1,30.22,ESE,112,5.0,5.0,82,0.00,,,0.00,Wunderground v.1.15,2013-11-12 14:10:00,
2013-11-12 06:15:00,54.1,48.4,30.23,ESE,112,2.0,5.0,81,0.00,,,0.00,Wunderground v.1.15,2013-11-12 14:15:00,
2013-11-12 06:20:00,54.3,48.3,30.23,ESE,115,1.0,1.0,80,0.00,,,0.00,Wunderground v.1.15,2013-11-12 14:20:00,
2013-11-12 06:25:00,54.5,48.5,30.22,ESE,115,1.0,4.0,80,0.00,,,0.00,Wunderground v.1.15,2013-11-12 14:25:00,
2013-11-12 06:30:00,54.4,48.4,30.22,ESE,115,0.0,4.0,80,0.00,,,0.00,Wunderground v.1.15,2013-11-12 14:30:00,
2013-11-12 06:40:00,54.4,48.4,30.22,ESE,115,0.0,4.0,80,0.00,,,0.00,Wunderground v.1.15,2013-11-12 14:40:00,
2013-11-12 06:45:00,54.0,48.0,30.22,ESE,115,0.0,4.0,80,0.00,,,0.00,Wunderground v.1.15,2013-11-12 14:45:00,
2013-11-12 06:50:00,53.6,47.9,30.23,ESE,115,0.0,4.0,81,0.00,,,0.00,Wunderground v.1.15,2013-11-12 14:50:00,
2013-11-12 06:55:00,53.7,48.0,30.22,ESE,115,0.0,4.0,81,0.00,,,0.00,Wunderground v.1.15,2013-11-12 14:55:00,
2013-11-12 07:00:00,53.9,48.2,30.22,ESE,115,0.0,4.0,81,0.00,,,0.00,Wunderground v.1.15,2013-11-12 15:00:00,
2013-11-12 07:10:00,53.8,48.1,30.23,ESE,115,0.0,4.0,81,0.00,,,0.00,Wunderground v.1.15,2013-11-12 15:10:00,
2013-11-12 07:15:00,53.9,48.2,30.23,SSE,156,2.0,4.0,81,0.00,,,0.00,Wunderground v.1.15,2013-11-12 15:15:00,
2013-11-12 07:20:00,53.9,48.2,30.23,SSE,156,2.0,2.0,81,0.00,,,0.00,Wunderground v.1.15,2013-11-12 15:20:00,
2013-11-12 07:25:00,53.9,48.2,30.23,SSE,156,0.0,4.0,81,0.00,,,0.00,Wunderground v.1.15,2013-11-12 15:25:00,
2013-11-12 07:35:00,53.9,48.5,30.23,SSE,156,0.0,4.0,82,0.00,,,0.00,Wunderground v.1.15,2013-11-12 15:35:00,
2013-11-12 07:40:00,53.9,48.5,30.23,SSE,156,0.0,4.0,82,0.00,,,0.00,Wunderground v.1.15,2013-11-12 15:40:00,
2013-11-12 07:45:00,53.9,48.5,30.23,SSE,156,0.0,4.0,82,0.00,,,0.00,Wunderground v.1.15,2013-11-12 15:45:00,
2013-11-12 07:50:00,53.9,48.5,30.23,SSE,155,0.0,4.0,82,0.00,,,0.00,Wunderground v.1.15,2013-11-12 15:50:00,
2013-11-12 07:55:00,53.9,48.5,30.23,SSE,155,0.0,4.0,82,0.00,,,0.00,Wunderground v.1.15,2013-11-12 15:55:00,
2013-11-12 08:05:00,53.9,48.5,30.24,SSE,155,0.0,4.0,82,0.00,,,0.00,Wunderground v.1.15,2013-11-12 16:05:00,
2013-11-12 08:10:00,54.0,48.6,30.24,SSE,155,0.0,4.0,82,0.00,,,0.00,Wunderground v.1.15,2013-11-12 16:10:00,
2013-11-12 08:15:00,54.2,49.1,30.24,SSE,155,0.0,4.0,83,0.00,,,0.00,Wunderground v.1.15,2013-11-12 16:15:00,
2013-11-12 08:20:00,54.2,48.8,30.25,SSE,155,0.0,4.0,82,0.00,,,0.00,Wunderground v.1.15,2013-11-12 16:20:00,
2013-11-12 08:25:00,54.3,49.2,30.25,SSE,155,0.0,4.0,83,0.00,,,0.00,Wunderground v.1.15,2013-11-12 16:25:00,
2013-11-12 08:35:00,54.7,49.3,30.25,SSE,155,0.0,4.0,82,0.00,,,0.00,Wunderground v.1.15,2013-11-12 16:35:00,
2013-11-12 08:40:00,54.9,49.2,30.25,SSE,155,0.0,4.0,81,0.00,,,0.00,Wunderground v.1.15,2013-11-12 16:40:00,
2013-11-12 08:45:00,55.1,49.4,30.26,SSE,155,0.0,4.0,81,0.00,,,0.00,Wunderground v.1.15,2013-11-12 16:45:00,
2013-11-12 08:50:00,55.4,49.3,30.26,SSE,159,0.0,4.0,80,0.00,,,0.00,Wunderground v.1.15,2013-11-12 16:50:00,
2013-11-12 08:55:00,55.8,49.7,30.26,South,178,0.0,4.0,80,0.00,,,0.00,Wunderground v.1.15,2013-11-12 16:55:00,
2013-11-12 09:05:00,56.3,49.2,30.26,WNW,284,0.0,4.0,77,0.00,,,0.00,Wunderground v.1.15,2013-11-12 17:05:00,
2013-11-12 09:10:00,56.6,49.5,30.26,WNW,284,0.0,4.0,77,0.00,,,0.00,Wunderground v.1.15,2013-11-12 17:10:00,
2013-11-12 09:15:00,56.9,49.4,30.26,WNW,284,0.0,4.0,76,0.00,,,0.00,Wunderground v.1.15,2013-11-12 17:15:00,
2013-11-12 09:20:00,57.2,49.3,30.26,WNW,284,0.0,4.0,75,0.00,,,0.00,Wunderground v.1.15,2013-11-12 17:20:00,
2013-11-12 09:25:00,57.6,49.7,30.26,West,269,0.0,4.0,75,0.00,,,0.00,Wunderground v.1.15,2013-11-12 17:25:00,
2013-11-12 09:35:00,58.2,50.0,30.27,SW,229,0.0,4.0,74,0.00,,,0.00,Wunderground v.1.15,2013-11-12 17:35:00,
2013-11-12 09:40:00,58.6,50.0,30.27,SW,229,0.0,4.0,73,0.00,,,0.00,Wunderground v.1.15,2013-11-12 17:40:00,
2013-11-12 09:45:00,58.9,50.3,30.28,SW,228,0.0,4.0,73,0.00,,,0.00,Wunderground v.1.15,2013-11-12 17:45:00,
2013-11-12 09:50:00,59.1,50.1,30.28,SW,228,0.0,4.0,72,0.00,,,0.00,Wunderground v.1.15,2013-11-12 17:50:00,
2013-11-12 09:55:00,59.3,50.3,30.28,SW,231,0.0,4.0,72,0.00,,,0.00,Wunderground v.1.15,2013-11-12 17:55:00,
2013-11-12 10:00:00,59.6,50.2,30.27,WSW,241,0.0,4.0,71,0.00,,,0.00,Wunderground v.1.15,2013-11-12 18:00:00,
2013-11-12 10:10:00,60.0,50.2,30.28,SE,140,0.0,4.0,70,0.00,,,0.00,Wunderground v.1.15,2013-11-12 18:10:00,
2013-11-12 10:15:00,60.4,50.6,30.28,SSE,160,0.0,4.0,70,0.00,,,0.00,Wunderground v.1.15,2013-11-12 18:15:00,
2013-11-12 10:20:00,60.6,50.0,30.28,SSE,165,0.0,4.0,68,0.00,,,0.00,Wunderground v.1.15,2013-11-12 18:20:00,
2013-11-12 10:25:00,60.8,49.8,30.28,SSE,155,0.0,4.0,67,0.00,,,0.00,Wunderground v.1.15,2013-11-12 18:25:00,
2013-11-12 10:30:00,61.0,50.0,30.27,SSE,165,0.0,4.0,67,0.00,,,0.00,Wunderground v.1.15,2013-11-12 18:30:00,
2013-11-12 10:40:00,61.4,50.3,30.27,SSE,163,0.0,4.0,67,0.00,,,0.00,Wunderground v.1.15,2013-11-12 18:40:00,
2013-11-12 10:45:00,61.8,50.7,30.27,SSE,163,0.0,4.0,67,0.00,,,0.00,Wunderground v.1.15,2013-11-12 18:45:00,
2013-11-12 10:50:00,62.1,51.0,30.27,SSE,163,0.0,4.0,67,0.00,,,0.00,Wunderground v.1.15,2013-11-12 18:50:00,
2013-11-12 10:55:00,62.6,51.1,30.26,SSE,163,0.0,4.0,66,0.00,,,0.00,Wunderground v.1.15,2013-11-12 18:55:00,
2013-11-12 11:05:00,62.9,51.4,30.26,SSE,163,0.0,4.0,66,0.00,,,0.00,Wunderground v.1.15,2013-11-12 19:05:00,
2013-11-12 11:10:00,63.0,51.0,30.26,South,171,0.0,4.0,65,0.00,,,0.00,Wunderground v.1.15,2013-11-12 19:10:00,
2013-11-12 11:15:00,63.1,51.1,30.26,South,171,0.0,4.0,65,0.00,,,0.00,Wunderground v.1.15,2013-11-12 19:15:00,
2013-11-12 11:20:00,63.4,51.8,30.26,SSE,165,0.0,4.0,66,0.00,,,0.00,Wunderground v.1.15,2013-11-12 19:20:00,
2013-11-12 11:25:00,63.8,51.4,30.25,SSE,165,0.0,4.0,64,0.00,,,0.00,Wunderground v.1.15,2013-11-12 19:25:00,
2013-11-12 11:35:00,64.5,51.6,30.26,South,182,0.0,4.0,63,0.00,,,0.00,Wunderground v.1.15,2013-11-12 19:35:00,
2013-11-12 11:40:00,65.0,51.7,30.25,East,92,0.0,4.0,62,0.00,,,0.00,Wunderground v.1.15,2013-11-12 19:40:00,
2013-11-12 11:45:00,65.1,51.8,30.25,SSE,152,0.0,4.0,62,0.00,,,0.00,Wunderground v.1.15,2013-11-12 19:45:00,
2013-11-12 11:50:00,65.0,52.1,30.25,SE,126,1.0,1.0,63,0.00,,,0.00,Wunderground v.1.15,2013-11-12 19:50:00,
2013-11-12 11:55:00,65.2,51.8,30.25,SE,126,1.0,4.0,62,0.00,,,0.00,Wunderground v.1.15,2013-11-12 19:55:00,
2013-11-12 12:05:00,65.6,52.2,30.24,SE,126,0.0,4.0,62,0.00,,,0.00,Wunderground v.1.15,2013-11-12 20:05:00,
2013-11-12 12:10:00,65.9,52.1,30.24,ESE,123,0.0,4.0,61,0.00,,,0.00,Wunderground v.1.15,2013-11-12 20:10:00,
2013-11-12 12:15:00,66.2,52.3,30.24,ESE,123,0.0,4.0,61,0.00,,,0.00,Wunderground v.1.15,2013-11-12 20:15:00,
2013-11-12 12:20:00,66.7,52.8,30.24,SE,132,0.0,5.0,61,0.00,,,0.00,Wunderground v.1.15,2013-11-12 20:20:00,
2013-11-12 12:25:00,67.2,52.4,30.24,SE,136,1.0,5.0,59,0.00,,,0.00,Wunderground v.1.15,2013-11-12 20:25:00,
2013-11-12 12:35:00,67.9,52.6,30.23,SSE,147,0.0,4.0,58,0.00,,,0.00,Wunderground v.1.15,2013-11-12 20:35:00,
2013-11-12 12:40:00,67.9,52.6,30.23,SSE,148,1.0,1.0,58,0.00,,,0.00,Wunderground v.1.15,2013-11-12 20:40:00,
2013-11-12 12:45:00,68.2,51.9,30.23,SSE,162,2.0,2.0,56,0.00,,,0.00,Wunderground v.1.15,2013-11-12 20:45:00,
2013-11-12 12:50:00,68.3,51.5,30.23,SSE,161,1.0,1.0,55,0.00,,,0.00,Wunderground v.1.15,2013-11-12 20:50:00,
2013-11-12 12:55:00,68.5,51.7,30.23,SSE,161,0.0,4.0,55,0.00,,,0.00,Wunderground v.1.15,2013-11-12 20:55:00,
2013-11-12 13:00:00,68.5,52.2,30.23,SSE,159,0.0,4.0,56,0.00,,,0.00,Wunderground v.1.15,2013-11-12 21:00:00,
2013-11-12 13:10:00,68.8,51.0,30.22,SSE,159,0.0,4.0,53,0.00,,,0.00,Wunderground v.1.15,2013-11-12 21:10:00,
2013-11-12 13:15:00,68.9,51.1,30.22,SSE,159,0.0,4.0,53,0.00,,,0.00,Wunderground v.1.15,2013-11-12 21:15:00,
2013-11-12 13:20:00,69.0,51.2,30.22,SSE,161,1.0,1.0,53,0.00,,,0.00,Wunderground v.1.15,2013-11-12 21:20:00,
2013-11-12 13:25:00,69.0,52.2,30.22,SSE,156,2.0,3.0,55,0.00,,,0.00,Wunderground v.1.15,2013-11-12 21:25:00,
2013-11-12 13:30:00,68.9,52.6,30.22,SSW,196,4.0,5.0,56,0.00,,,0.00,Wunderground v.1.15,2013-11-12 21:30:00,
2013-11-12 13:35:00,68.7,52.4,30.22,South,185,6.0,9.0,56,0.00,,,0.00,Wunderground v.1.15,2013-11-12 21:35:00,
2013-11-12 13:45:00,68.6,52.8,30.21,South,182,5.0,6.0,57,0.00,,,0.00,Wunderground v.1.15,2013-11-12 21:45:00,
2013-11-12 13:50:00,68.8,52.5,30.21,SSE,166,4.0,4.0,56,0.00,,,0.00,Wunderground v.1.15,2013-11-12 21:50:00,
2013-11-12 13:55:00,68.6,52.8,30.21,South,177,5.0,5.0,57,0.00,,,0.00,Wunderground v.1.15,2013-11-12 21:55:00,
2013-11-12 14:00:00,68.6,52.8,30.21,South,175,5.0,5.0,57,0.00,,,0.00,Wunderground v.1.15,2013-11-12 22:00:00,
2013-11-12 14:05:00,68.6,52.3,30.21,South,171,4.0,5.0,56,0.00,,,0.00,Wunderground v.1.15,2013-11-12 22:05:00,
2013-11-12 14:10:00,68.7,52.4,30.21,South,170,2.0,5.0,56,0.00,,,0.00,Wunderground v.1.15,2013-11-12 22:10:00,
2013-11-12 14:20:00,68.4,52.6,30.21,SSE,164,5.0,5.0,57,0.00,,,0.00,Wunderground v.1.15,2013-11-12 22:20:00,
2013-11-12 14:25:00,68.8,52.5,30.21,SSE,161,3.0,5.0,56,0.00,,,0.00,Wunderground v.1.15,2013-11-12 22:25:00,
2013-11-12 14:30:00,69.4,52.0,30.21,SSE,158,2.0,2.0,54,0.00,,,0.00,Wunderground v.1.15,2013-11-12 22:30:00,
2013-11-12 14:35:00,70.0,51.6,30.21,SSE,158,1.0,4.0,52,0.00,,,0.00,Wunderground v.1.15,2013-11-12 22:35:00,
2013-11-12 14:40:00,70.5,52.0,30.21,SSE,158,0.0,4.0,52,0.00,,,0.00,Wunderground v.1.15,2013-11-12 22:40:00,
2013-11-12 14:45:00,70.6,51.1,30.21,SSE,157,0.0,4.0,50,0.00,,,0.00,Wunderground v.1.15,2013-11-12 22:45:00,
2013-11-12 14:55:00,70.9,49.7,30.20,SSE,157,1.0,4.0,47,0.00,,,0.00,Wunderground v.1.15,2013-11-12 22:55:00,
2013-11-12 15:00:00,71.1,49.3,30.20,SSE,161,0.0,4.0,46,0.00,,,0.00,Wunderground v.1.15,2013-11-12 23:00:00,
2013-11-12 15:05:00,70.8,50.7,30.20,South,184,2.0,7.0,49,0.00,,,0.00,Wunderground v.1.15,2013-11-12 23:05:00,
2013-11-12 15:10:00,69.9,50.9,30.20,South,179,5.0,8.0,51,0.00,,,0.00,Wunderground v.1.15,2013-11-12 23:10:00,
2013-11-12 15:15:00,69.4,49.9,30.20,South,186,6.0,8.0,50,0.00,,,0.00,Wunderground v.1.15,2013-11-12 23:15:00,
2013-11-12 15:25:00,69.8,49.8,30.21,South,185,5.0,5.0,49,0.00,,,0.00,Wunderground v.1.15,2013-11-12 23:25:00,
2013-11-12 15:30:00,69.0,51.7,30.21,SSW,197,5.0,5.0,54,0.00,,,0.00,Wunderground v.1.15,2013-11-12 23:30:00,
2013-11-12 15:35:00,67.9,51.6,30.20,South,191,6.0,6.0,56,0.00,,,0.00,Wunderground v.1.15,2013-11-12 23:35:00,
2013-11-12 15:40:00,67.3,52.0,30.20,South,189,5.0,5.0,58,0.00,,,0.00,Wunderground v.1.15,2013-11-12 23:40:00,
2013-11-12 15:50:00,66.2,51.9,30.20,South,182,6.0,6.0,60,0.00,,,0.00,Wunderground v.1.15,2013-11-12 23:50:00,
2013-11-12 15:55:00,66.1,52.3,30.20,SSE,165,5.0,6.0,61,0.00,,,0.00,Wunderground v.1.15,2013-11-12 23:55:00,
2013-11-12 16:00:00,65.9,52.1,30.20,South,170,5.0,5.0,61,0.00,,,0.00,Wunderground v.1.15,2013-11-13 00:00:00,
2013-11-12 16:05:00,65.8,52.4,30.20,South,172,4.0,5.0,62,0.00,,,0.00,Wunderground v.1.15,2013-11-13 00:05:00,
2013-11-12 16:10:00,65.8,52.4,30.20,South,189,2.0,2.0,62,0.00,,,0.00,Wunderground v.1.15,2013-11-13 00:10:00,
2013-11-12 16:15:00,65.7,52.3,30.20,South,184,2.0,4.0,62,0.00,,,0.00,Wunderground v.1.15,2013-11-13 00:15:00,
2013-11-12 16:25:00,65.5,52.1,30.21,South,182,1.0,4.0,62,0.00,,,0.00,Wunderground v.1.15,2013-11-13 00:25:00,
2013-11-12 16:30:00,65.3,51.9,30.21,South,179,0.0,4.0,62,0.00,,,0.00,Wunderground v.1.15,2013-11-13 00:30:00,
2013-11-12 16:35:00,64.6,52.1,30.21,South,179,0.0,4.0,64,0.00,,,0.00,Wunderground v.1.15,2013-11-13 00:35:00,
2013-11-12 16:40:00,64.0,52.0,30.21,South,178,0.0,4.0,65,0.00,,,0.00,Wunderground v.1.15,2013-11-13 00:40:00,
2013-11-12 16:45:00,63.4,51.8,30.21,South,178,0.0,4.0,66,0.00,,,0.00,Wunderground v.1.15,2013-11-13 00:45:00,
2013-11-12 16:55:00,61.9,52.0,30.22,South,179,2.0,4.0,70,0.00,,,0.00,Wunderground v.1.15,2013-11-13 00:55:00,
2013-11-12 17:00:00,61.5,52.4,30.21,South,179,1.0,1.0,72,0.00,,,0.00,Wunderground v.1.15,2013-11-13 01:00:00,
2013-11-12 17:05:00,61.2,52.5,30.22,South,180,0.0,3.0,73,0.00,,,0.00,Wunderground v.1.15,2013-11-13 01:05:00,
2013-11-12 17:10:00,60.9,52.6,30.21,South,178,1.0,4.0,74,0.00,,,0.00,Wunderground v.1.15,2013-11-13 01:10:00,
2013-11-12 17:15:00,60.3,52.3,30.21,South,179,2.0,4.0,75,0.00,,,0.00,Wunderground v.1.15,2013-11-13 01:15:00,
2013-11-12 17:25:00,60.1,52.9,30.21,South,184,5.0,7.0,77,0.00,,,0.00,Wunderground v.1.15,2013-11-13 01:25:00,
2013-11-12 17:30:00,59.9,52.7,30.21,South,183,5.0,5.0,77,0.00,,,0.00,Wunderground v.1.15,2013-11-13 01:30:00,
2013-11-12 17:35:00,59.6,52.4,30.21,South,183,3.0,5.0,77,0.00,,,0.00,Wunderground v.1.15,2013-11-13 01:35:00,
2013-11-12 17:40:00,59.4,52.9,30.21,South,184,3.0,4.0,79,0.00,,,0.00,Wunderground v.1.15,2013-11-13 01:40:00,
2013-11-12 17:45:00,59.1,52.6,30.21,South,184,4.0,4.0,79,0.00,,,0.00,Wunderground v.1.15,2013-11-13 01:45:00,
2013-11-12 17:50:00,58.5,52.4,30.21,South,184,2.0,2.0,80,0.00,,,0.00,Wunderground v.1.15,2013-11-13 01:50:00,
2013-11-12 18:00:00,57.8,52.3,30.22,South,184,1.0,1.0,82,0.00,,,0.00,Wunderground v.1.15,2013-11-13 02:00:00,
2013-11-12 18:05:00,57.5,52.0,30.22,South,184,0.0,4.0,82,0.00,,,0.00,Wunderground v.1.15,2013-11-13 02:05:00,
2013-11-12 18:10:00,57.6,52.5,30.22,South,184,0.0,4.0,83,0.00,,,0.00,Wunderground v.1.15,2013-11-13 02:10:00,
2013-11-12 18:15:00,57.5,52.4,30.22,South,184,0.0,4.0,83,0.00,,,0.00,Wunderground v.1.15,2013-11-13 02:15:00,
2013-11-12 18:20:00,57.2,52.1,30.22,South,184,1.0,4.0,83,0.00,,,0.00,Wunderground v.1.15,2013-11-13 02:20:00,
2013-11-12 18:25:00,57.0,52.2,30.22,South,184,1.0,4.0,84,0.00,,,0.00,Wunderground v.1.15,2013-11-13 02:25:00,
2013-11-12 18:30:00,56.9,52.4,30.22,South,184,0.0,4.0,85,0.00,,,0.00,Wunderground v.1.15,2013-11-13 02:30:00,
2013-11-12 18:40:00,56.7,52.6,30.22,South,184,0.0,4.0,86,0.00,,,0.00,Wunderground v.1.15,2013-11-13 02:40:00,
2013-11-12 18:45:00,56.7,52.6,30.22,South,184,0.0,4.0,86,0.00,,,0.00,Wunderground v.1.15,2013-11-13 02:45:00,
2013-11-12 18:50:00,56.8,52.7,30.22,South,184,0.0,4.0,86,0.00,,,0.00,Wunderground v.1.15,2013-11-13 02:50:00,
2013-11-12 18:55:00,56.9,53.1,30.22,South,184,0.0,4.0,87,0.00,,,0.00,Wunderground v.1.15,2013-11-13 02:55:00,
2013-11-12 19:00:00,56.9,53.1,30.22,South,184,0.0,4.0,87,0.00,,,0.00,Wunderground v.1.15,2013-11-13 03:00:00,
2013-11-12 19:05:00,56.7,52.9,30.22,South,184,0.0,4.0,87,0.00,,,0.00,Wunderground v.1.15,2013-11-13 03:05:00,
2013-11-12 19:15:00,56.6,53.1,30.23,South,184,0.0,4.0,88,0.00,,,0.00,Wunderground v.1.15,2013-11-13 03:15:00,
2013-11-12 19:20:00,56.5,53.0,30.23,South,184,0.0,4.0,88,0.00,,,0.00,Wunderground v.1.15,2013-11-13 03:20:00,
2013-11-12 19:25:00,56.2,52.4,30.23,South,184,0.0,4.0,87,0.00,,,0.00,Wunderground v.1.15,2013-11-13 03:25:00,
2013-11-12 19:30:00,55.8,51.7,30.23,South,184,0.0,4.0,86,0.00,,,0.00,Wunderground v.1.15,2013-11-13 03:30:00,
2013-11-12 19:35:00,55.0,50.9,30.23,South,184,0.0,4.0,86,0.00,,,0.00,Wunderground v.1.15,2013-11-13 03:35:00,
2013-11-12 19:40:00,54.3,50.5,30.23,South,184,0.0,4.0,87,0.00,,,0.00,Wunderground v.1.15,2013-11-13 03:40:00,
2013-11-12 19:45:00,54.0,50.8,30.23,South,184,0.0,4.0,89,0.00,,,0.00,Wunderground v.1.15,2013-11-13 03:45:00,
2013-11-12 19:55:00,54.0,51.1,30.24,South,184,0.0,4.0,90,0.00,,,0.00,Wunderground v.1.15,2013-11-13 03:55:00,
2013-11-12 20:00:00,53.8,50.6,30.24,South,184,0.0,4.0,89,0.00,,,0.00,Wunderground v.1.15,2013-11-13 04:00:00,
2013-11-12 20:05:00,53.3,49.8,30.24,South,184,0.0,4.0,88,0.00,,,0.00,Wunderground v.1.15,2013-11-13 04:05:00,
2013-11-12 20:10:00,52.9,49.4,30.24,South,184,0.0,4.0,88,0.00,,,0.00,Wunderground v.1.15,2013-11-13 04:10:00,
2013-11-12 20:15:00,52.6,49.8,30.24,South,184,0.0,4.0,90,0.00,,,0.00,Wunderground v.1.15,2013-11-13 04:15:00,
2013-11-12 20:25:00,52.9,50.9,30.24,South,184,0.0,4.0,93,0.00,,,0.00,Wunderground v.1.15,2013-11-13 04:25:00,
2013-11-12 20:30:00,53.2,51.5,30.25,South,184,0.0,4.0,94,0.00,,,0.00,Wunderground v.1.15,2013-11-13 04:30:00,
2013-11-12 20:35:00,52.7,50.1,30.24,South,184,0.0,4.0,91,0.00,,,0.00,Wunderground v.1.15,2013-11-13 04:35:00,
2013-11-12 20:40:00,52.3,49.8,30.24,South,184,0.0,4.0,91,0.00,,,0.00,Wunderground v.1.15,2013-11-13 04:40:00,
2013-11-12 20:45:00,52.3,50.0,30.25,South,184,0.0,4.0,92,0.00,,,0.00,Wunderground v.1.15,2013-11-13 04:45:00,
2013-11-12 20:50:00,52.1,49.8,30.24,South,184,0.0,4.0,92,0.00,,,0.00,Wunderground v.1.15,2013-11-13 04:50:00,
2013-11-12 21:00:00,51.4,48.6,30.25,South,184,0.0,4.0,90,0.00,,,0.00,Wunderground v.1.15,2013-11-13 05:00:00,
2013-11-12 21:05:00,51.0,48.5,30.25,South,184,0.0,4.0,91,0.00,,,0.00,Wunderground v.1.15,2013-11-13 05:05:00,
2013-11-12 21:10:00,50.8,48.6,30.25,South,184,0.0,4.0,92,0.00,,,0.00,Wunderground v.1.15,2013-11-13 05:10:00,
2013-11-12 21:15:00,50.6,48.7,30.25,South,184,0.0,4.0,93,0.00,,,0.00,Wunderground v.1.15,2013-11-13 05:15:00,
2013-11-12 21:20:00,50.8,49.1,30.25,South,184,0.0,4.0,94,0.00,,,0.00,Wunderground v.1.15,2013-11-13 05:20:00,
2013-11-12 21:30:00,50.8,49.1,30.25,South,184,0.0,4.0,94,0.00,,,0.00,Wunderground v.1.15,2013-11-13 05:30:00,
2013-11-12 21:35:00,51.0,49.6,30.25,South,184,0.0,4.0,95,0.00,,,0.00,Wunderground v.1.15,2013-11-13 05:35:00,
2013-11-12 21:40:00,50.9,49.2,30.25,South,184,0.0,4.0,94,0.00,,,0.00,Wunderground v.1.15,2013-11-13 05:40:00,
2013-11-12 21:45:00,50.6,48.9,30.25,South,184,0.0,4.0,94,0.00,,,0.00,Wunderground v.1.15,2013-11-13 05:45:00,
2013-11-12 21:50:00,50.3,48.6,30.25,South,184,0.0,4.0,94,0.00,,,0.00,Wunderground v.1.15,2013-11-13 05:50:00,
2013-11-12 21:55:00,50.3,48.9,30.26,South,184,0.0,4.0,95,0.00,,,0.00,Wunderground v.1.15,2013-11-13 05:55:00,
2013-11-12 22:05:00,50.6,49.2,30.26,South,184,0.0,4.0,95,0.00,,,0.00,Wunderground v.1.15,2013-11-13 06:05:00,
2013-11-12 22:10:00,50.3,48.9,30.25,South,184,0.0,4.0,95,0.00,,,0.00,Wunderground v.1.15,2013-11-13 06:10:00,
2013-11-12 22:15:00,49.0,47.1,30.25,South,184,0.0,4.0,93,0.00,,,0.00,Wunderground v.1.15,2013-11-13 06:15:00,
2013-11-12 22:20:00,48.7,47.1,30.25,South,184,0.0,4.0,94,0.00,,,0.00,Wunderground v.1.15,2013-11-13 06:20:00,
2013-11-12 22:25:00,48.7,47.3,30.25,South,184,0.0,4.0,95,0.00,,,0.00,Wunderground v.1.15,2013-11-13 06:25:00,
2013-11-12 22:30:00,49.1,48.0,30.25,South,184,0.0,4.0,96,0.00,,,0.00,Wunderground v.1.15,2013-11-13 06:30:00,
2013-11-12 22:40:00,49.6,48.5,30.25,South,184,0.0,4.0,96,0.00,,,0.00,Wunderground v.1.15,2013-11-13 06:40:00,
2013-11-12 22:45:00,49.5,48.4,30.25,South,184,0.0,4.0,96,0.00,,,0.00,Wunderground v.1.15,2013-11-13 06:45:00,
2013-11-12 22:50:00,48.7,47.3,30.25,South,184,0.0,4.0,95,0.00,,,0.00,Wunderground v.1.15,2013-11-13 06:50:00,
2013-11-12 22:55:00,48.2,46.6,30.25,South,184,0.0,4.0,94,0.00,,,0.00,Wunderground v.1.15,2013-11-13 06:55:00,
2013-11-12 23:00:00,48.1,46.7,30.25,South,184,0.0,4.0,95,0.00,,,0.00,Wunderground v.1.15,2013-11-13 07:00:00,
2013-11-12 23:10:00,48.9,48.1,30.25,South,184,0.0,4.0,97,0.00,,,0.00,Wunderground v.1.15,2013-11-13 07:10:00,
2013-11-12 23:15:00,49.0,48.2,30.25,South,184,0.0,4.0,97,0.00,,,0.00,Wunderground v.1.15,2013-11-13 07:15:00,
2013-11-12 23:20:00,48.7,47.6,30.25,South,184,0.0,4.0,96,0.00,,,0.00,Wunderground v.1.15,2013-11-13 07:20:00,
2013-11-12 23:25:00,48.3,47.2,30.25,South,184,0.0,4.0,96,0.00,,,0.00,Wunderground v.1.15,2013-11-13 07:25:00,
2013-11-12 23:30:00,48.0,46.6,30.25,South,184,0.0,4.0,95,0.00,,,0.00,Wunderground v.1.15,2013-11-13 07:30:00,
2013-11-12 23:35:00,48.1,47.0,30.25,South,184,0.0,4.0,96,0.00,,,0.00,Wunderground v.1.15,2013-11-13 07:35:00,
2013-11-12 23:45:00,48.9,48.1,30.25,South,184,0.0,4.0,97,0.00,,,0.00,Wunderground v.1.15,2013-11-13 07:45:00,
2013-11-12 23:50:00,48.2,47.1,30.25,South,184,0.0,4.0,96,0.00,,,0.00,Wunderground v.1.15,2013-11-13 07:50:00,
2013-11-12 23:55:00,47.9,46.8,30.25,South,184,0.0,4.0,96,0.00,,,0.00,Wunderground v.1.15,2013-11-13 07:55:00,